Tracking 20232 objects as of 22-Jan-2020
HD Live streaming from Space Station
objects crossing your sky now

COSMOS 1174 DEB

Track COSMOS 1174 DEB now!
10-day predictions


NORAD ID: 12354
Int'l Code: 1980-030Y
Perigee: 393.8 km
Apogee: 996.2 km
Inclination: 66.1 °
Period: 98.5 minutes
Semi major axis: 7066 km
RCS: 0.107 m2 (medium)
Launch date: April 18, 1980
Source: Commonwealth of Independent States (former USSR) (CIS)
Launch site: TYURATAM MISSILE AND SPACE COMPLEX (TTMTR)

Note: This is SATELLITE DEBRIS
aabbcc
Your satellite tracking list
Your tracking list is empty




NASA's NSSDC Master Catalog

Two Line Element Set (TLE):
1 12354U 80030Y   20021.22930536 +.00000532 +00000-0 +39090-4 0  9996
2 12354 066.1073 088.6311 0426289 290.7222 064.8696 14.61641869052644
Source of the keplerian elements: AFSPC